Home > Weather > Lübbecke > Past weeks

Flag for Germany Weather for the Past 2 Weeks in Lübbecke, North Rhine-Westphalia, Germany

Now
50 °F

Passing clouds.


Feels Like: 44 °F
Forecast: 41 / 48 °F
Wind: 20 mph from South

Location: Bueckeburg

Current Time: Feb 6, 2016 at 10:18:38 PM

Latest Report: Feb 6, 2016 at 9:20 PM


Visibility: N/A

Pressure: 29.65 "Hg

Humidity: 67%

Dew point: 39 °F

Location of LübbeckeLocation

Historic Weather in Lübbecke — Graph

°F

Lübbecke Temperature Yesterday

Maximum temperature yesterday: 48 °F (at 4:20 PM)
Minimum temperature yesterday: 37 °F (at 12:20 AM)
Average temperature yesterday: 43 °F

High & Low Weather Summary for the Past Weeks

 TemperatureHumidityPressure
High54 °F (Jan 25, 1:20 PM)100% (Jan 23, 6:20 AM)30.51 "Hg (Jan 23, 6:20 AM)
Low30 °F (Jan 22, 8:20 PM)57% (Jan 28, 1:20 PM)29.59 "Hg (Jan 30, 2:20 PM)
Average45 °F85%30.03 "Hg
* Reported Jan 22 8:20 PM — Feb 6 8:20 PM, Lübbecke, Weather by CustomWeather, © 2016

Note: Actual official high and low records may vary slightly from our data, if they occured in-between our weather recording intervals... More about our weather records

Advertising

Lübbecke Weather History for the Previous 24 Hours

 ConditionsComfort  
Time TempWeatherWind HumidityBarometerVisibility
8:20 PM
Sat, Feb 6
50 °FPassing clouds.22 mph71%29.68 "HgN/A
7:20 PM50 °FPassing clouds.16 mph71%29.71 "HgN/A
6:20 PM50 °FPassing clouds.16 mph71%29.71 "HgN/A
5:20 PM50 °FPassing clouds.12 mph76%29.74 "HgN/A
4:20 PM52 °FPartly sunny.10 mph72%29.77 "HgN/A
3:20 PM54 °FPartly sunny.8 mph67%29.77 "HgN/A
2:20 PM52 °FScattered clouds.10 mph72%29.80 "HgN/A
1:20 PM52 °FPartly sunny.12 mph72%29.83 "HgN/A
12:20 PM52 °FScattered clouds.10 mph72%29.86 "HgN/A
11:20 AM50 °FScattered clouds.15 mph76%29.86 "HgN/A
10:20 AM48 °FBroken clouds.14 mph76%29.86 "HgN/A
9:20 AM46 °FOvercast.13 mph82%29.89 "HgN/A
8:20 AM46 °FPartly sunny.10 mph82%29.92 "HgN/A
7:20 AM46 °FPartly cloudy.12 mph82%29.92 "HgN/A
6:20 AM46 °FPassing clouds.12 mph87%29.92 "HgN/A
5:20 AM48 °FPassing clouds.15 mph82%29.95 "HgN/A
4:20 AM48 °FPassing clouds.17 mph82%29.95 "HgN/A
3:20 AM50 °FPassing clouds.20 mph76%29.98 "HgN/A
2:20 AM50 °FPassing clouds.15 mph76%30.01 "HgN/A
1:20 AM50 °FPassing clouds.15 mph82%30.04 "HgN/A
12:20 AM50 °FPassing clouds.13 mph82%30.04 "HgN/A
11:20 PM
Fri, Feb 5
48 °FPartly cloudy.15 mph94%30.07 "Hg5 mi
10:20 PM48 °FPassing clouds.13 mph94%30.07 "Hg4 mi
Weather by CustomWeather, © 2016

See weather overviewHow to use our weather pages